Theta_e
313 310 310 314 317 317 313 314 311 315 323 320 318 320 324 327 326 326 325 326 326 327 330 332 333 330 331 331 328 327 326 325 322 318 316 316 315 316 316 316 315 313 312 313
310 307 315 318 318 317 314 310 310 317 322 319 316 317 324 326 326 327 326 326 325 326 328 330 332 330 330 328 326 326 324 323 320 318 318 317 316 316 316 316 315 314 312 310
309 311 315 314 313 314 313 310 310 311 319 320 316 314 320 326 328 328 327 327 327 326 326 329 329 329 328 326 325 324 323 321 320 320 318 317 317 316 313 312 311 312 311 311
310 314 311 311 309 311 308 313 311 311 313 307 319 304 318 323 324 326 327 327 325 327 328 329 328 326 325 325 325 324 322 320 319 319 318 317 313 311 311 310 310 310 311 310
308 309 307 307 309 312 308 313 311 311 312 311 313 310 313 323 321 323 327 327 325 327 328 327 327 325 325 324 323 322 321 319 319 318 318 314 312 312 311 309 311 312 311 312
310 313 310 309 312 312 313 311 312 314 312 305 310 311 311 319 322 325 327 327 326 327 328 327 327 327 324 323 322 319 318 318 318 317 317 315 312 312 310 310 308 308 309 310
308 308 310 312 309 312 312 311 305 303 303 302 313 312 313 323 324 326 326 326 329 331 327 326 325 323 323 321 318 315 316 316 317 317 317 315 314 313 310 311 310 311 308 309
303 300 308 312 311 311 313 313 305 297 299 301 314 307 316 326 327 328 329 328 329 328 327 325 324 323 321 319 316 313 315 315 316 316 315 315 314 312 311 312 312 311 311 311
304 304 311 312 316 317 313 310 316 308 309 304 308 314 323 326 326 326 328 328 326 326 326 324 323 321 320 318 313 313 314 315 316 315 314 313 313 312 313 315 315 313 314 313
310 304 310 312 315 316 314 317 308 308 300 299 305 308 311 319 321 324 326 324 325 326 324 322 321 321 319 317 315 314 315 314 315 315 314 312 312 312 314 315 314 315 315 314
312 311 310 312 308 308 311 311 312 312 310 303 301 306 321 322 324 324 325 324 324 324 322 321 321 320 317 314 313 314 314 314 315 314 314 312 312 312 314 315 314 315 315 315
312 312 308 308 314 315 315 311 312 307 306 309 307 308 321 323 325 327 325 325 325 325 322 321 320 318 317 313 312 314 314 314 315 314 313 312 312 312 314 314 314 314 314 314
314 310 306 307 311 313 310 313 313 315 315 307 304 306 320 322 324 326 325 325 324 323 321 320 319 317 316 313 312 313 314 314 315 313 312 312 313 312 314 314 314 314 313 312
318 314 310 304 308 311 308 310 313 313 307 308 307 311 317 319 321 324 325 324 323 322 320 319 318 317 316 313 312 312 314 315 314 313 311 312 313 312 313 314 313 314 314 312
318 311 313 313 312 311 310 310 311 310 311 308 310 309 315 319 321 324 325 324 322 320 319 318 318 317 316 314 312 312 314 314 315 311 311 312 312 313 314 313 314 313 313 313
319 314 315 310 311 311 308 310 311 311 311 311 310 309 316 321 324 324 324 322 321 320 319 318 318 317 315 314 313 312 313 314 314 311 310 311 311 312 314 313 313 314 313 313
318 315 313 307 310 310 306 310 311 312 314 313 307 315 318 319 320 322 323 322 322 321 319 318 318 317 315 315 314 313 314 314 313 311 311 311 311 310 314 314 313 313 313 313
318 317 315 308 309 299 312 317 315 313 314 314 314 316 315 318 322 324 325 323 323 321 320 319 318 317 316 316 315 315 315 313 313 310 310 310 310 312 314 313 313 314 314 313
323 319 310 306 304 306 308 312 312 312 311 317 315 317 316 319 322 322 325 325 324 323 322 320 320 318 316 316 315 314 313 313 312 310 309 310 310 312 312 311 313 312 313 312
321 323 311 306 299 296 307 314 318 317 307 317 319 318 317 318 311 315 324 324 323 323 322 320 318 317 316 316 315 313 313 312 312 311 310 311 311 314 312 313 314 315 314 312
311 312 306 303 302 306 313 316 318 305 310 321 321 320 319 315 320 324 324 323 324 323 321 319 317 315 316 316 315 313 313 311 313 313 311 311 314 314 315 315 315 314 313 314
309 306 305 310 305 301 318 316 311 319 324 322 322 322 321 322 321 321 322 322 322 320 318 317 315 315 316 316 315 312 311 315 314 312 311 311 314 313 312 315 314 313 314 313
309 315 313 316 312 325 322 324 326 325 323 321 323 323 322 321 320 320 320 321 320 318 316 316 315 315 316 315 317 313 312 312 313 310 310 312 313 313 315 314 314 311 311 311
317 320 315 316 321 321 323 325 324 323 323 323 324 323 322 319 320 320 320 319 318 316 315 316 315 314 313 313 314 316 313 312 312 310 310 312 312 312 313 311 312 310 309 307
317 320 315 314 321 322 323 325 323 322 322 322 322 322 320 320 320 319 318 318 316 316 315 315 315 315 314 315 315 314 313 313 311 310 310 311 310 309 311 312 310 309 310 305
320 317 313 313 323 322 323 325 323 321 320 321 321 320 321 320 319 319 317 317 316 315 316 315 315 315 315 314 314 315 314 313 311 310 309 308 308 308 308 309 308 302 301 298
Wind_Speed
17 15 18 19 20 21 8 8 10 5 15 10 12 11 11 16 15 14 14 14 12 10 13 10 9 6 8 9 9 9 11 12 10 8 8 7 7 7 7 7 11 9 9 12
15 20 20 19 19 19 8 16 13 10 8 9 11 12 14 18 17 15 15 14 14 9 12 10 9 5 7 8 7 9 10 11 10 7 6 6 5 5 6 8 10 8 9 8
17 18 21 18 16 19 13 18 14 8 9 11 12 16 15 17 18 17 14 12 13 14 10 11 9 6 7 7 7 8 9 9 9 10 6 7 4 5 8 9 9 10 12 11
16 12 11 12 16 13 19 15 15 15 7 12 14 12 20 18 19 19 18 16 16 14 12 12 11 7 5 7 7 7 8 8 8 9 7 8 8 8 8 9 9 8 11 11
15 13 7 12 18 19 16 14 13 14 12 19 13 9 3 19 19 19 18 16 16 15 12 12 12 10 9 7 6 7 7 7 6 8 9 9 9 8 8 7 7 7 8 9
17 9 14 17 16 16 13 7 14 10 13 18 12 13 8 16 16 18 18 16 16 16 17 14 14 11 8 7 7 8 6 6 6 7 9 10 8 8 8 8 7 6 6 5
17 12 13 14 10 11 15 14 11 11 13 13 10 10 8 13 5 15 17 17 20 15 16 13 11 11 7 6 6 7 6 6 6 7 9 10 9 8 8 8 7 9 6 7
16 18 20 12 18 13 19 16 14 5 13 12 24 6 10 12 8 12 16 18 15 15 16 14 12 9 9 7 5 5 7 6 6 8 10 8 9 6 5 7 7 6 7 5
15 17 23 19 19 19 19 17 21 12 13 11 12 10 8 10 11 11 18 17 17 15 15 13 11 8 8 8 5 6 6 7 6 9 7 6 6 6 7 7 7 6 7 9
8 11 18 18 17 19 13 10 11 10 15 12 4 10 10 12 12 15 19 18 17 15 15 13 11 8 7 7 7 5 6 6 6 9 7 6 5 5 6 7 9 9 9 8
12 9 12 13 15 17 12 16 9 11 4 12 11 7 6 11 12 16 18 18 17 16 15 13 11 9 7 6 9 6 5 5 6 8 5 4 5 5 6 6 8 9 9 10
18 8 8 17 15 11 11 17 16 9 11 6 6 5 2 7 14 15 18 18 17 16 14 13 12 10 9 6 7 7 4 4 6 8 3 4 4 4 6 6 8 9 9 11
15 7 12 10 9 8 12 11 12 7 5 14 14 4 6 6 12 14 17 18 16 15 14 13 11 9 7 7 6 7 4 5 5 6 4 3 5 5 7 7 8 8 8 9
12 13 16 10 16 16 16 17 9 8 8 13 3 8 11 9 12 13 16 16 16 14 13 12 10 8 7 7 7 6 5 3 4 6 3 4 4 3 4 4 6 7 8 9
8 14 13 10 3 2 6 10 10 8 14 9 14 11 10 7 12 14 16 16 16 14 13 12 9 9 8 7 6 5 4 4 2 3 2 2 2 1 2 6 6 6 7 8
12 11 12 7 5 6 8 7 7 8 6 8 5 9 6 9 11 14 16 16 16 14 13 12 9 9 8 7 6 6 5 4 4 2 1 3 1 1 2 3 5 6 8 9
14 7 9 12 7 9 10 7 7 7 6 9 9 11 10 10 12 14 15 15 14 14 13 11 10 8 7 6 6 6 6 5 4 2 5 2 2 2 1 4 6 8 8 9
12 11 10 4 8 8 6 7 5 7 10 6 1 2 5 8 8 11 13 14 13 13 12 11 9 9 8 7 6 6 6 5 5 4 4 2 1 2 3 5 7 8 8 10
10 10 3 4 6 4 4 5 6 10 13 12 6 7 7 8 9 9 10 12 12 12 11 10 9 10 8 7 7 7 7 6 5 3 2 2 0 1 3 5 6 6 8 7
7 6 6 5 4 6 3 11 2 7 12 13 9 10 10 10 9 10 13 13 12 12 11 11 11 10 8 6 5 6 6 6 6 4 2 4 2 3 4 5 6 6 7 6
10 9 8 5 8 2 4 5 4 8 3 7 8 11 12 9 7 15 17 15 13 12 12 12 12 10 9 8 6 5 3 4 4 3 3 4 4 4 5 5 5 6 7 6
10 8 9 10 8 8 9 9 14 3 1 5 8 10 12 11 11 14 15 14 14 13 14 13 11 10 9 7 5 4 3 1 2 2 3 4 4 5 5 5 6 7 8 5
5 3 4 13 5 6 9 8 7 4 6 5 8 10 12 11 12 14 14 14 14 13 12 12 11 11 9 7 1 4 6 2 3 2 2 4 6 5 4 6 6 7 6 4
6 4 2 4 11 10 10 5 6 3 6 7 9 12 13 12 14 14 14 13 12 12 11 10 11 12 8 5 5 2 5 0 3 2 2 3 5 6 5 5 3 5 5 7
5 6 3 2 4 6 8 9 7 6 7 10 11 14 12 15 15 14 14 14 13 12 11 9 8 8 10 5 5 4 3 2 2 2 4 3 3 2 5 4 4 6 4 4
9 7 5 2 8 5 10 9 9 9 10 11 13 13 13 14 14 14 13 13 13 12 10 9 7 8 8 6 6 5 3 3 3 3 2 1 1 4 5 4 1 9 9 5
Wind_Direction
202 208 207 195 230 253 319 263 292 145 120 195 246 199 189 180 213 199 192 197 162 178 143 140 113 101 90 74 64 44 43 26 8 18 7 4 4 24 7 25 41 27 4 356
187 220 207 207 220 246 260 280 268 79 108 244 245 228 191 187 207 214 199 200 152 164 158 142 124 125 100 87 73 55 39 33 18 10 15 355 10 20 7 33 18 41 25 17
213 217 234 216 217 230 238 246 255 243 142 241 264 255 201 200 191 216 203 192 160 170 157 158 152 168 111 90 65 59 45 31 31 346 23 360 10 22 21 19 15 16 9 7
232 224 236 202 230 222 243 228 258 273 199 269 185 298 185 190 192 206 202 197 153 155 162 159 161 136 127 109 85 66 48 32 47 19 33 32 9 15 31 6 24 17 9 5
219 246 220 239 234 230 244 269 275 236 223 262 220 250 176 173 194 203 209 201 151 153 153 155 156 150 152 137 98 75 63 48 47 50 36 19 18 15 19 3 10 10 360 356
246 185 233 226 240 234 249 229 249 236 238 235 265 223 150 167 199 197 198 201 147 168 154 161 140 148 158 136 116 84 81 66 51 46 55 49 20 9 2 7 357 6 348 356
216 224 237 234 236 219 220 207 210 218 236 254 223 214 100 133 159 181 183 171 157 163 149 153 159 165 145 103 71 101 73 81 61 59 52 36 14 7 359 351 359 336 349 350
217 205 221 177 230 204 205 200 259 230 263 146 241 245 99 118 130 152 170 149 149 169 150 164 166 149 124 96 71 86 110 77 74 53 46 42 15 11 7 359 352 345 346 345
217 237 183 201 221 214 195 234 245 304 288 273 279 81 123 132 143 163 150 142 165 173 153 147 136 137 109 108 93 106 86 87 55 66 51 37 22 21 347 359 357 0 1 349
259 225 179 189 215 233 264 232 238 230 270 287 312 238 91 170 162 168 142 162 163 153 149 146 149 128 119 109 124 98 93 78 68 57 41 34 8 29 342 360 15 12 11 343
232 242 173 177 214 219 207 244 232 286 239 262 310 73 73 159 165 161 156 162 160 160 154 155 141 140 124 131 114 123 107 87 71 78 31 28 13 9 354 6 19 13 13 16
214 245 215 202 201 258 275 237 248 248 258 322 276 333 59 109 146 160 162 160 157 164 153 156 143 140 151 115 116 117 105 91 71 92 53 39 14 6 348 10 18 4 8 2
191 225 237 154 194 204 247 232 264 276 319 281 288 84 145 126 130 161 164 154 159 157 158 154 143 143 132 122 130 122 121 82 64 80 59 50 28 353 349 16 8 3 9 1
202 228 236 222 226 200 208 239 228 240 259 285 127 181 140 137 144 162 154 154 161 162 161 150 146 139 140 126 137 139 126 90 91 89 80 33 13 346 339 14 22 7 357 6
195 235 233 248 310 234 184 213 227 237 259 285 324 349 96 136 157 168 156 162 160 168 169 150 153 145 144 146 147 142 149 135 103 83 75 2 325 278 6 28 359 360 12 2
200 239 232 189 185 183 210 219 241 276 303 279 291 288 95 125 153 166 165 173 170 174 166 153 154 149 156 152 166 158 159 166 152 99 286 240 282 48 28 17 329 21 9 1
191 214 222 204 196 228 232 237 251 273 259 285 311 74 123 149 172 176 173 179 175 172 165 157 157 158 150 152 157 164 182 158 207 150 253 268 78 13 46 323 354 356 355 353
201 214 223 147 181 215 50 355 310 272 278 267 211 152 143 155 174 179 173 177 173 167 163 155 157 153 149 147 164 162 174 196 214 182 258 218 154 326 318 349 356 346 347 342
197 207 142 214 227 349 313 266 239 241 255 230 237 143 150 137 152 174 171 166 170 161 156 151 154 150 148 154 160 172 184 195 222 203 256 284 16 302 342 4 350 336 326 335
184 255 207 156 199 236 245 299 230 262 257 240 182 164 150 155 200 177 169 158 154 151 146 148 144 143 147 135 155 186 197 195 207 253 206 294 274 292 326 5 331 322 318 332
175 190 192 196 250 212 147 217 163 230 357 82 148 158 153 182 33 108 142 148 144 149 145 145 146 151 142 136 159 183 197 198 210 226 284 284 309 296 305 324 320 324 312 329
180 162 236 224 206 217 160 170 223 97 129 132 144 150 154 110 126 130 139 141 146 150 145 155 157 147 139 147 173 97 45 16 231 175 291 296 295 309 327 307 328 321 331 353
211 169 340 345 83 319 151 63 104 133 147 149 144 144 152 142 144 141 141 146 150 150 156 158 158 141 146 145 197 141 132 303 215 200 323 312 305 290 298 296 347 315 345 331
165 149 232 240 141 154 147 130 152 147 127 137 135 148 139 146 146 148 145 153 151 155 161 161 155 153 145 150 171 225 87 140 254 130 288 279 276 304 327 306 274 339 341 338
109 155 171 326 126 134 159 163 148 142 136 129 140 139 153 151 151 152 152 153 159 157 155 154 164 147 147 183 169 135 150 217 196 206 255 260 285 334 298 269 5 335 60 4
167 213 204 90 131 94 119 138 144 148 140 143 143 152 148 156 152 155 151 154 155 157 147 152 132 136 172 180 120 159 183 170 193 216 295 242 225 234 230 275 313 199 235 222